period_start,C,m1,H,J0,J1,J2,J3,J4,J5,JA,JB,JC,JD,JJ,JK,JN,#
2016-07-16 00:04:44,0.00,0.02,0.00,18.81,24.67,28.17,14.98,45.89,1027.79,2050.98,3569.00,3164.92,3591.00,600.13,611.38,4.53,0000 0000 0000 0000 000000
2016-07-16 00:09:46,0.00,0.02,0.00,18.88,24.68,28.15,14.94,45.74,1027.83,2050.97,3569.00,3164.69,3591.00,599.63,610.79,4.58,0000 0000 0000 0000 000000
2016-07-16 00:14:47,0.01,0.02,0.00,18.91,24.70,28.13,14.99,45.88,1027.84,2050.97,3569.00,3164.45,3591.00,600.03,611.08,4.63,0000 0000 0000 0000 000000
2016-07-16 00:19:49,0.00,0.02,0.00,18.94,24.70,28.13,14.90,45.77,1027.84,2050.94,3568.99,3164.14,3590.99,599.66,610.70,4.68,0000 0000 0000 0000 000000
2016-07-16 00:24:50,-0.01,0.02,0.00,19.00,24.72,28.10,14.96,45.77,1027.83,2050.88,3568.98,3164.07,3590.96,599.86,610.71,4.73,0000 0000 0000 0000 000000
2016-07-16 00:29:52,2.69,0.09,0.00,19.03,24.73,28.02,14.92,45.80,1027.83,2050.37,3536.86,3125.70,3553.97,599.83,610.62,4.78,0000 0000 0000 0000 000000
2016-07-16 00:34:53,0.13,0.16,0.00,19.07,24.75,28.04,14.94,45.80,1027.82,2050.14,3523.08,3109.17,3538.10,599.95,610.66,4.83,0000 0000 0000 0000 000000
2016-07-16 00:39:54,0.00,0.16,0.00,19.07,24.76,28.07,14.90,45.81,1027.84,2050.16,3522.90,3109.02,3537.96,599.84,610.56,4.88,0000 0000 0000 0000 000000
2016-07-16 00:44:55,0.01,0.16,0.00,19.11,24.78,28.08,14.88,45.95,1027.85,2050.04,3522.55,3109.00,3537.64,599.63,610.31,4.93,0000 0000 0000 0000 000000
2016-07-16 00:49:57,0.00,0.16,0.00,19.16,24.80,28.10,14.94,46.01,1027.85,2050.01,3522.18,3109.00,3537.16,600.03,610.55,4.98,0000 0000 0000 0000 000000
2016-07-16 00:54:58,0.00,0.16,0.00,19.18,24.82,28.07,14.88,45.93,1027.91,2050.00,3522.07,3108.99,3537.03,599.85,610.39,5.03,0000 0000 0000 0000 000000
2016-07-16 00:59:59,0.00,0.16,0.00,19.23,24.84,28.09,14.91,45.77,1027.97,2050.00,3522.04,3108.97,3537.01,599.85,610.41,5.08,0000 0000 0000 0000 000000
2016-07-16 01:05:00,0.00,0.16,0.00,19.26,24.85,28.15,14.93,45.71,1028.04,2050.00,3522.01,3108.92,3537.00,600.15,610.69,5.13,0000 0000 0000 0000 000000
2016-07-16 01:10:02,0.01,0.16,0.00,19.26,24.87,28.12,14.94,45.79,1028.12,2050.00,3521.98,3108.50,3536.99,600.17,610.65,5.18,0000 0000 0000 0000 000000
2016-07-16 01:15:03,0.02,0.16,0.00,19.31,24.90,28.20,14.93,45.88,1028.17,2049.99,3521.75,3108.07,3536.65,599.73,610.15,5.23,0000 0000 0000 0000 000000
2016-07-16 01:20:05,0.01,0.16,0.00,19.35,24.91,28.19,14.91,45.88,1028.28,2049.97,3521.38,3108.01,3536.12,599.91,610.26,5.28,0000 0000 0000 0000 000000
2016-07-16 01:25:06,0.03,0.16,0.00,19.36,24.93,28.27,14.89,45.83,1028.31,2049.97,3520.84,3107.52,3535.53,599.65,610.04,5.33,0000 0000 0000 0000 000000
2016-07-16 01:30:08,0.08,0.17,0.00,19.40,24.96,28.25,15.01,45.93,1028.33,2049.70,3519.14,3105.12,3533.11,600.21,610.56,5.38,0000 0000 0000 0000 000000
2016-07-16 01:35:09,-0.01,0.17,0.00,19.44,24.97,28.29,14.86,45.92,1028.33,2049.47,3519.00,3105.00,3532.86,599.70,610.10,5.43,0000 0000 0000 0000 000000
2016-07-16 01:40:10,-0.01,0.17,0.00,19.48,24.99,28.34,14.92,45.88,1028.34,2049.30,3519.00,3104.97,3532.48,600.28,610.26,5.48,0000 0000 0000 0000 000000
2016-07-16 01:45:11,-0.00,0.17,0.00,19.48,25.01,28.35,14.90,45.79,1028.35,2049.10,3518.98,3104.89,3532.05,600.01,610.27,5.53,0000 0000 0000 0000 000000
2016-07-16 01:50:12,0.01,0.17,0.00,19.48,25.03,28.37,14.90,45.75,1028.36,2049.02,3518.73,3104.44,3532.00,600.20,610.37,5.58,0000 0000 0000 0000 000000
2016-07-16 01:55:14,0.00,0.17,0.00,19.47,25.05,28.41,14.92,45.75,1028.38,2049.01,3518.24,3104.06,3531.99,599.91,610.11,5.63,0000 0000 0000 0000 000000
2016-07-16 02:00:15,0.00,0.17,0.00,19.49,25.07,28.38,14.98,45.71,1028.40,2049.00,3518.04,3104.01,3531.96,600.54,610.86,5.68,0000 0000 0000 0000 000000
2016-07-16 02:05:16,0.00,0.17,0.00,19.49,25.09,28.39,14.89,45.77,1028.42,2049.00,3518.01,3104.00,3531.91,600.00,610.17,5.73,0000 0000 0000 0000 000000
2016-07-16 02:10:17,0.01,0.17,0.00,19.54,25.10,28.42,14.89,45.74,1028.49,2048.99,3518.00,3103.99,3531.17,599.81,609.98,5.78,0000 0000 0000 0000 000000
2016-07-16 02:15:18,0.00,0.17,0.00,19.51,25.12,28.44,14.99,45.78,1028.68,2048.99,3517.94,3103.97,3531.03,600.07,610.31,5.83,0000 0000 0000 0000 000000
2016-07-16 02:20:20,0.00,0.17,0.00,19.58,25.14,28.47,14.95,45.77,1028.75,2048.98,3517.90,3103.94,3531.00,600.20,610.36,5.88,0000 0000 0000 0000 000000
2016-07-16 02:25:21,0.00,0.17,0.00,19.58,25.16,28.47,14.95,45.83,1028.75,2048.97,3517.85,3103.87,3531.00,600.11,610.07,5.93,0000 0000 0000 0000 000000
2016-07-16 02:30:22,0.02,0.17,0.00,19.60,25.18,28.48,14.89,45.79,1028.71,2048.95,3517.40,3103.48,3530.98,599.85,609.98,5.98,0000 0000 0000 0000 000000
2016-07-16 02:35:23,-0.00,0.17,0.00,19.64,25.20,28.56,14.91,45.72,1028.77,2048.81,3517.05,3103.08,3530.81,599.85,609.89,6.03,0000 0000 0000 0000 000000
2016-07-16 02:40:24,0.00,0.17,0.00,19.66,25.22,28.51,14.87,45.69,1028.81,2048.68,3517.00,3103.00,3530.27,599.91,610.04,6.09,0000 0000 0000 0000 000000
2016-07-16 02:45:26,-0.03,0.17,0.00,19.69,25.24,28.52,14.95,45.74,1028.82,2048.26,3516.98,3103.00,3530.02,600.04,610.06,6.14,0000 0000 0000 0000 000000
2016-07-16 02:50:27,-0.01,0.17,0.00,19.71,25.26,28.55,14.85,45.63,1028.82,2048.10,3516.83,3102.99,3530.00,599.97,609.97,6.19,0000 0000 0000 0000 000000
2016-07-16 02:55:28,-0.00,0.17,0.00,19.75,25.28,28.54,14.94,45.67,1028.82,2048.03,3516.77,3102.97,3529.99,600.02,609.90,6.24,0000 0000 0000 0000 000000
2016-07-16 03:00:30,0.01,0.17,0.00,19.74,25.31,28.62,14.93,45.66,1028.82,2048.01,3516.54,3102.92,3529.97,600.05,610.03,6.29,0000 0000 0000 0000 000000
2016-07-16 03:05:31,0.03,0.17,0.00,19.78,25.33,28.64,14.94,45.80,1028.83,2048.00,3516.08,3102.39,3529.56,600.16,610.13,6.34,0000 0000 0000 0000 000000
2016-07-16 03:10:32,0.01,0.17,0.00,19.79,25.36,28.63,14.91,45.88,1028.83,2048.00,3516.00,3102.04,3529.10,599.85,609.69,6.39,0000 0000 0000 0000 000000
2016-07-16 03:15:34,-0.00,0.17,0.00,19.80,25.38,28.65,14.97,45.84,1028.83,2047.99,3516.00,3102.00,3529.02,600.11,609.79,6.44,0000 0000 0000 0000 000000
2016-07-16 03:20:35,-0.00,0.17,0.00,19.80,25.41,28.69,14.90,45.91,1028.84,2047.93,3515.99,3102.00,3528.99,599.96,609.89,6.49,0000 0000 0000 0000 000000
2016-07-16 03:25:36,0.01,0.17,0.00,19.84,25.44,28.77,14.91,45.86,1028.87,2047.73,3515.55,3101.69,3528.60,600.32,610.06,6.54,0000 0000 0000 0000 000000
2016-07-16 03:30:38,-0.03,0.17,0.00,19.84,25.46,28.77,14.89,45.80,1028.90,2047.15,3515.04,3101.11,3528.02,599.70,609.43,6.59,0000 0000 0000 0000 000000
2016-07-16 03:35:39,-0.00,0.17,0.00,19.86,25.49,28.80,14.86,45.84,1028.91,2047.03,3515.00,3101.02,3528.00,600.14,609.85,6.64,0000 0000 0000 0000 000000
2016-07-16 03:40:40,-0.00,0.17,0.00,19.90,25.52,28.85,14.87,45.80,1028.88,2047.00,3514.99,3101.00,3527.97,599.86,609.48,6.69,0000 0000 0000 0000 000000
2016-07-16 03:45:41,0.00,0.17,0.00,19.94,25.54,28.90,14.87,45.82,1028.86,2047.00,3514.99,3100.99,3527.92,599.87,609.30,6.74,0000 0000 0000 0000 000000
2016-07-16 03:50:42,0.01,0.17,0.00,19.96,25.57,28.91,14.93,45.79,1028.87,2047.00,3514.94,3100.97,3527.39,600.18,609.66,6.79,0000 0000 0000 0000 000000
2016-07-16 03:55:43,0.01,0.17,0.00,20.00,25.60,28.96,14.89,45.88,1028.91,2047.00,3514.44,3100.83,3527.07,600.05,609.45,6.84,0000 0000 0000 0000 000000
2016-07-16 04:00:45,0.01,0.17,0.00,20.03,25.62,28.95,14.96,45.93,1028.99,2047.00,3514.10,3100.30,3527.00,600.28,609.76,6.89,0000 0000 0000 0000 000000
2016-07-16 04:05:46,0.00,0.17,0.00,20.07,25.65,28.99,14.88,45.95,1029.05,2047.00,3514.01,3100.02,3526.96,599.58,608.95,6.94,0000 0000 0000 0000 000000
2016-07-16 04:10:47,0.00,0.17,0.00,20.17,25.68,29.02,14.90,45.73,1029.00,2046.99,3513.95,3100.00,3526.52,599.71,608.83,6.99,0000 0000 0000 0000 000000
2016-07-16 04:15:49,0.04,0.17,0.00,20.18,25.70,29.03,14.90,45.67,1028.88,2046.94,3513.37,3099.48,3525.84,599.96,608.94,7.04,0000 0000 0000 0000 000000
2016-07-16 04:20:50,-0.02,0.17,0.00,20.23,25.73,29.02,14.82,45.69,1028.87,2046.55,3512.98,3099.00,3525.12,599.95,608.92,7.09,0000 0000 0000 0000 000000
2016-07-16 04:25:51,-0.03,0.17,0.00,20.25,25.76,29.04,14.88,45.73,1028.89,2046.15,3512.85,3098.98,3525.01,600.10,608.95,7.14,0000 0000 0000 0000 000000
2016-07-16 04:30:52,0.01,0.17,0.00,20.30,25.79,29.02,14.83,45.70,1028.90,2046.04,3512.23,3098.97,3525.00,599.83,608.61,7.19,0000 0000 0000 0000 000000
2016-07-16 04:35:53,0.01,0.17,0.00,20.37,25.81,29.08,14.86,45.79,1028.86,2046.02,3512.03,3098.64,3524.93,600.28,608.91,7.24,0000 0000 0000 0000 000000
2016-07-16 04:40:55,0.02,0.17,0.00,20.39,25.84,29.10,14.87,45.84,1028.86,2046.00,3512.00,3098.10,3524.35,599.74,608.33,7.29,0000 0000 0000 0000 000000
2016-07-16 04:45:55,0.00,0.17,0.00,20.43,25.86,29.05,14.85,45.61,1028.86,2046.00,3512.00,3098.00,3524.04,599.88,608.35,7.34,0000 0000 0000 0000 000000
2016-07-16 04:50:57,0.00,0.17,0.00,20.46,25.89,29.09,14.88,45.59,1028.87,2045.97,3511.97,3097.99,3524.00,600.18,608.52,7.39,0000 0000 0000 0000 000000
2016-07-16 04:55:58,0.01,0.17,0.00,20.49,25.91,29.13,14.84,45.85,1028.95,2045.94,3511.44,3097.95,3523.93,600.07,608.48,7.44,0000 0000 0000 0000 000000
2016-07-16 05:00:59,-0.02,0.17,0.00,20.49,25.94,29.12,14.82,45.78,1028.93,2045.79,3511.07,3097.83,3523.57,600.15,608.48,7.49,0000 0000 0000 0000 000000
2016-07-16 05:06:01,-0.02,0.17,0.00,20.49,25.97,29.13,14.80,45.72,1028.98,2045.36,3511.00,3097.22,3523.05,599.89,608.43,7.54,0000 0000 0000 0000 000000
2016-07-16 05:11:02,-0.01,0.17,0.00,20.54,25.99,29.19,14.91,45.72,1029.12,2045.05,3511.00,3097.04,3523.00,600.15,608.55,7.59,0000 0000 0000 0000 000000
2016-07-16 05:16:04,0.00,0.17,0.00,20.56,26.02,29.18,14.80,45.71,1029.23,2045.01,3510.93,3097.00,3522.99,599.92,608.31,7.64,0000 0000 0000 0000 000000
2016-07-16 05:21:05,0.01,0.17,0.00,20.56,26.04,29.14,14.89,45.68,1029.31,2045.00,3510.53,3096.99,3522.84,599.90,608.34,7.69,0000 0000 0000 0000 000000
2016-07-16 05:26:06,0.01,0.17,0.00,20.57,26.07,29.24,14.82,45.66,1029.31,2045.00,3510.05,3096.97,3522.19,599.70,608.14,7.74,0000 0000 0000 0000 000000
2016-07-16 05:31:08,0.01,0.17,0.00,20.60,26.09,29.26,14.79,45.67,1029.31,2044.99,3510.01,3096.76,3522.03,599.70,608.11,7.79,0000 0000 0000 0000 000000
2016-07-16 05:36:09,0.01,0.17,0.00,20.64,26.11,29.28,14.86,45.61,1029.29,2044.97,3509.99,3096.24,3522.00,599.98,608.28,7.84,0000 0000 0000 0000 000000
2016-07-16 05:41:11,-0.00,0.17,0.00,20.67,26.14,29.31,14.82,45.61,1029.31,2044.94,3509.99,3096.07,3522.00,600.08,608.11,7.89,0000 0000 0000 0000 000000
2016-07-16 05:46:12,0.00,0.17,0.00,20.69,26.16,29.33,14.81,45.66,1029.29,2044.88,3509.78,3096.02,3521.94,599.93,608.08,7.94,0000 0000 0000 0000 000000
2016-07-16 05:51:13,-0.03,0.17,0.00,20.71,26.19,29.35,14.89,45.72,1029.27,2044.45,3509.25,3096.00,3521.40,600.11,608.19,7.99,0000 0000 0000 0000 000000
2016-07-16 05:56:15,-0.02,0.17,0.00,20.74,26.21,29.38,14.81,45.71,1029.30,2044.08,3509.02,3095.99,3521.05,599.87,607.97,8.04,0000 0000 0000 0000 000000
2016-07-16 06:01:16,0.00,0.17,0.00,20.74,26.23,29.38,14.84,45.69,1029.31,2044.03,3509.00,3095.89,3521.00,599.82,607.91,8.09,0000 0000 0000 0000 000000
2016-07-16 06:06:17,0.01,0.17,0.00,20.78,26.26,29.43,14.87,45.77,1029.30,2044.00,3508.97,3095.39,3520.99,600.12,608.21,8.14,0000 0000 0000 0000 000000
2016-07-16 06:11:18,0.03,0.17,0.00,20.76,26.28,29.46,14.83,45.73,1029.30,2044.00,3508.13,3095.01,3520.16,599.92,607.96,8.19,0000 0000 0000 0000 000000
2016-07-16 06:16:19,0.00,0.18,0.00,20.80,26.31,29.56,14.85,45.67,1029.31,2044.00,3508.00,3094.97,3520.00,599.74,607.93,8.24,0000 0000 0000 0000 000000
2016-07-16 06:21:20,0.02,0.18,0.00,20.82,26.33,29.53,14.88,45.71,1029.31,2043.99,3507.88,3094.61,3519.99,600.40,608.17,8.29,0000 0000 0000 0000 000000
2016-07-16 06:26:22,0.00,0.18,0.00,20.85,26.36,29.56,14.86,45.74,1029.31,2043.98,3507.70,3094.22,3519.96,599.93,607.81,8.34,0000 0000 0000 0000 000000
2016-07-16 06:31:23,0.01,0.18,0.00,20.90,26.38,29.57,14.81,45.67,1029.31,2043.96,3507.12,3094.04,3519.45,599.79,607.53,8.39,0000 0000 0000 0000 000000
2016-07-16 06:36:24,-0.02,0.18,0.00,21.02,26.40,29.65,14.81,45.65,1029.31,2043.73,3506.89,3093.96,3519.02,600.17,607.65,8.45,0000 0000 0000 0000 000000
2016-07-16 06:41:26,-0.03,0.18,0.00,22.12,26.44,29.85,14.79,45.48,1029.32,2043.27,3506.72,3093.66,3518.86,600.13,605.63,8.50,0000 0000 0000 0000 000000
2016-07-16 06:46:27,0.02,0.18,0.00,22.68,26.49,29.77,14.61,45.18,1029.32,2043.01,3506.14,3093.11,3518.09,600.01,604.11,8.55,0000 0000 0000 0000 000000
2016-07-16 06:51:28,-0.00,0.18,0.00,22.96,26.55,29.70,14.69,45.20,1029.32,2043.00,3506.01,3092.99,3517.97,600.08,603.58,8.60,0000 0000 0000 0000 000000
2016-07-16 06:56:30,0.03,0.18,0.00,23.04,26.60,29.71,14.66,45.24,1029.33,2042.94,3505.87,3092.20,3517.16,600.01,603.51,8.65,0000 0000 0000 0000 000000
2016-07-16 07:01:31,-0.05,0.18,0.00,23.09,26.67,29.75,14.57,45.21,1029.35,2042.38,3505.09,3092.00,3516.88,599.91,603.26,8.70,0000 0000 0000 0000 000000
2016-07-16 07:06:33,0.02,0.18,0.00,23.23,26.74,29.81,14.59,45.05,1029.37,2042.02,3504.83,3091.35,3516.11,599.84,602.89,8.75,0000 0000 0000 0000 000000
2016-07-16 07:11:34,0.01,0.18,0.00,23.28,26.81,29.89,14.61,45.03,1029.41,2041.99,3504.07,3091.00,3515.79,600.07,603.09,8.80,0000 0000 0000 0000 000000
2016-07-16 07:16:36,-0.02,0.18,0.00,23.37,26.89,29.95,14.66,45.13,1029.58,2041.62,3503.81,3090.40,3515.03,600.07,603.01,8.85,0000 0000 0000 0000 000000
2016-07-16 07:21:37,-0.01,0.18,0.00,23.14,26.96,30.06,14.69,44.93,1029.65,2041.01,3503.04,3090.00,3514.34,599.99,603.40,8.90,0000 0000 0000 0000 000000
2016-07-16 07:26:38,0.03,0.18,0.00,22.62,27.02,30.21,14.69,45.22,1029.72,2040.99,3502.57,3089.44,3513.99,599.80,604.34,8.95,0000 0000 0000 0000 000000
2016-07-16 07:31:39,-0.01,0.18,0.00,22.02,27.07,30.37,14.78,45.30,1029.72,2040.81,3502.01,3089.01,3513.43,600.17,605.84,9.00,0000 0000 0000 0000 000000
2016-07-16 07:36:41,-0.04,0.18,0.00,21.77,27.11,30.55,14.78,45.38,1029.74,2040.14,3501.82,3088.98,3513.01,599.94,606.13,9.05,0000 0000 0000 0000 000000
2016-07-16 07:41:42,0.02,0.18,0.00,21.66,27.14,30.56,14.84,45.33,1029.68,2040.03,3501.16,3088.62,3512.95,600.03,606.46,9.10,0000 0000 0000 0000 000000
2016-07-16 07:46:43,0.01,0.18,0.00,21.58,27.17,30.40,14.80,45.25,1029.47,2040.00,3501.00,3088.15,3512.69,600.09,606.54,9.15,0000 0000 0000 0000 000000
2016-07-16 07:51:44,0.01,0.18,0.00,22.53,27.20,30.56,14.66,45.08,1029.36,2040.00,3501.00,3088.02,3512.23,600.20,604.74,9.20,0000 0000 0000 0000 000000
2016-07-16 07:56:46,0.00,0.18,0.00,23.08,27.24,30.54,14.63,45.03,1029.56,2039.99,3500.97,3087.99,3512.01,600.10,603.72,9.25,0000 0000 0000 0000 000000
2016-07-16 08:01:47,0.02,0.18,0.00,23.20,27.29,30.47,14.71,45.02,1029.66,2039.94,3500.46,3087.72,3511.87,600.06,603.41,9.30,0000 0000 0000 0000 000000
2016-07-16 08:06:48,-0.00,0.18,0.00,23.38,27.33,30.44,14.64,44.89,1029.63,2039.75,3500.03,3087.10,3511.20,600.03,602.85,9.35,0000 0000 0000 0000 000000
2016-07-16 08:11:49,-0.04,0.18,0.00,23.47,27.38,30.44,14.64,44.93,1029.71,2039.19,3500.00,3087.00,3511.00,599.79,602.61,9.40,0000 0000 0000 0000 000000
2016-07-16 08:16:50,0.03,0.18,0.00,23.43,27.43,30.47,14.59,44.88,1029.73,2039.02,3499.35,3086.68,3510.40,599.92,602.80,9.45,0000 0000 0000 0000 000000
2016-07-16 08:21:51,0.01,0.18,0.00,23.51,27.47,30.51,14.66,44.87,1029.68,2038.99,3499.00,3086.03,3510.00,600.14,602.80,9.50,0000 0000 0000 0000 000000
2016-07-16 08:26:53,-0.00,0.18,0.00,23.16,27.52,30.60,14.63,45.03,1029.69,2038.84,3498.68,3085.98,3509.69,599.85,603.17,9.55,0000 0000 0000 0000 000000
2016-07-16 08:31:54,-0.02,0.18,0.00,22.63,27.55,30.71,14.71,45.08,1029.64,2038.30,3498.02,3085.61,3509.04,599.92,604.37,9.60,0000 0000 0000 0000 000000
2016-07-16 08:36:56,-0.00,0.18,0.00,22.73,27.58,30.79,14.67,44.96,1029.53,2038.03,3497.98,3085.10,3509.00,599.95,604.08,9.65,0000 0000 0000 0000 000000
2016-07-16 08:41:57,0.00,0.18,0.00,23.09,27.62,30.82,14.59,44.99,1029.45,2038.00,3497.89,3085.01,3508.88,600.16,603.55,9.70,0000 0000 0000 0000 000000
2016-07-16 08:46:59,0.02,0.18,0.00,23.30,27.66,30.76,14.63,44.93,1029.52,2038.00,3497.24,3084.99,3508.17,599.91,602.77,9.75,0000 0000 0000 0000 000000
2016-07-16 08:52:00,0.01,0.18,0.00,23.03,27.70,30.82,14.67,44.90,1029.60,2037.99,3497.01,3084.84,3508.00,599.98,603.58,9.80,0000 0000 0000 0000 000000
2016-07-16 08:57:01,0.01,0.18,0.00,23.40,27.73,30.81,14.61,44.93,1029.71,2037.93,3497.00,3084.16,3507.98,599.93,602.81,9.85,0000 0000 0000 0000 000000
2016-07-16 09:02:03,-0.04,0.18,0.00,23.55,27.77,30.81,14.67,44.85,1029.78,2037.39,3496.86,3084.00,3507.39,600.30,602.92,9.90,0000 0000 0000 0000 000000
2016-07-16 09:07:04,0.00,0.18,0.00,23.56,27.81,30.84,14.59,44.87,1029.78,2037.04,3496.17,3083.98,3507.01,599.83,602.45,9.95,0000 0000 0000 0000 000000
2016-07-16 09:12:05,0.01,0.18,0.00,23.18,27.85,30.91,14.66,44.98,1029.77,2037.00,3496.00,3083.63,3506.94,599.89,603.22,10.00,0000 0000 0000 0000 000000
2016-07-16 09:17:07,0.01,0.18,0.00,22.69,27.87,31.05,14.75,45.16,1029.76,2037.00,3495.96,3083.08,3506.57,600.12,604.42,10.05,0000 0000 0000 0000 000000
2016-07-16 09:22:08,0.01,0.18,0.00,22.79,27.88,31.26,14.74,45.11,1029.76,2036.99,3495.80,3083.03,3506.31,600.07,604.25,10.10,0000 0000 0000 0000 000000
2016-07-16 09:27:09,0.01,0.18,0.00,23.32,27.91,31.05,14.68,44.91,1029.75,2036.97,3495.32,3083.00,3506.08,599.92,603.13,10.15,0000 0000 0000 0000 000000
2016-07-16 09:32:11,-0.00,0.18,0.00,23.49,27.94,31.02,14.66,44.86,1029.77,2036.91,3495.01,3083.00,3506.00,599.95,602.84,10.20,0000 0000 0000 0000 000000
2016-07-16 09:37:12,-0.04,0.18,0.00,23.49,27.96,31.00,14.61,44.77,1029.80,2036.49,3495.00,3082.90,3505.87,599.84,602.59,10.25,0000 0000 0000 0000 000000
2016-07-16 09:42:13,-0.00,0.18,0.00,23.18,27.99,31.08,14.65,44.92,1029.79,2036.08,3494.86,3082.37,3505.25,599.69,603.06,10.30,0000 0000 0000 0000 000000
2016-07-16 09:47:14,0.01,0.18,0.00,22.57,28.00,31.31,14.73,45.04,1029.79,2036.01,3494.16,3082.05,3505.02,599.88,604.52,10.35,0000 0000 0000 0000 000000
2016-07-16 09:52:16,0.00,0.18,0.00,22.40,28.00,31.19,14.78,44.99,1029.79,2036.01,3494.02,3082.01,3505.00,600.04,604.99,10.40,0000 0000 0000 0000 000000
2016-07-16 09:57:17,0.00,0.18,0.00,22.72,28.00,31.19,14.71,45.07,1029.78,2036.00,3494.00,3082.00,3505.00,600.11,604.45,10.45,0000 0000 0000 0000 000000
2016-07-16 10:02:19,0.00,0.18,0.00,23.27,28.02,31.40,14.61,44.83,1029.80,2036.00,3494.00,3082.00,3504.99,599.43,602.68,10.50,0000 0000 0000 0000 000000
2016-07-16 10:07:20,0.00,0.18,0.00,23.47,28.04,31.29,14.61,44.85,1029.76,2036.00,3494.00,3081.99,3504.96,599.74,602.64,10.55,0000 0000 0000 0000 000000
2016-07-16 10:12:21,0.00,0.18,0.00,23.49,28.06,31.18,14.67,44.85,1029.74,2036.00,3493.99,3081.99,3504.87,599.91,602.61,10.61,0000 0000 0000 0000 000000
2016-07-16 10:17:22,0.01,0.18,0.00,23.51,28.07,31.14,14.63,44.81,1029.79,2036.00,3493.97,3081.97,3504.35,599.90,602.58,10.66,0000 0000 0000 0000 000000
2016-07-16 10:22:23,0.01,0.18,0.00,23.51,28.10,31.13,14.66,44.89,1029.80,2035.99,3493.87,3081.86,3504.06,600.08,602.78,10.71,0000 0000 0000 0000 000000
2016-07-16 10:27:25,0.01,0.18,0.00,23.30,28.10,31.19,14.69,44.77,1029.80,2035.97,3493.41,3081.53,3504.01,600.04,603.19,10.76,0000 0000 0000 0000 000000
2016-07-16 10:32:26,0.00,0.18,0.00,22.70,28.12,31.37,14.70,44.94,1029.80,2035.97,3493.07,3081.35,3504.01,600.04,604.46,10.81,0000 0000 0000 0000 000000
2016-07-16 10:37:28,0.00,0.18,0.00,22.34,28.11,31.21,14.80,44.90,1029.80,2035.97,3492.99,3081.07,3504.00,600.13,605.24,10.86,0000 0000 0000 0000 000000
2016-07-16 10:42:29,0.00,0.18,0.00,22.28,28.10,31.17,14.71,44.98,1029.80,2035.96,3492.69,3081.02,3503.96,599.60,604.77,10.91,0000 0000 0000 0000 000000
2016-07-16 10:47:30,0.01,0.18,0.00,22.37,28.10,31.24,14.80,45.17,1029.80,2035.98,3492.02,3080.99,3503.44,600.05,605.10,10.96,0000 0000 0000 0000 000000
2016-07-16 10:52:32,-0.00,0.18,0.00,22.83,28.09,31.38,14.75,45.07,1029.80,2035.99,3492.00,3080.99,3503.76,600.04,604.15,11.01,0000 0000 0000 0000 000000
2016-07-16 10:57:33,-0.00,0.18,0.00,23.25,28.10,31.43,14.74,44.83,1029.80,2035.99,3492.00,3080.99,3503.77,600.18,603.44,11.06,0000 0000 0000 0000 000000
2016-07-16 11:02:34,0.00,0.18,0.00,23.35,28.10,31.41,14.70,44.81,1029.80,2035.99,3492.00,3080.99,3503.51,600.02,603.07,11.11,0000 0000 0000 0000 000000
2016-07-16 11:07:36,0.00,0.18,0.00,22.86,28.10,31.45,14.71,44.95,1029.80,2035.99,3492.00,3080.99,3503.37,599.86,603.77,11.16,0000 0000 0000 0000 000000
2016-07-16 11:12:37,0.00,0.18,0.00,22.35,28.10,31.20,14.71,44.96,1029.79,2035.98,3491.98,3080.98,3503.19,599.93,605.02,11.21,0000 0000 0000 0000 000000
2016-07-16 11:17:38,0.00,0.18,0.00,22.24,28.08,31.15,14.81,44.98,1029.77,2035.98,3491.98,3080.99,3503.38,599.93,605.25,11.26,0000 0000 0000 0000 000000
2016-07-16 11:22:39,-0.00,0.18,0.00,22.37,28.07,31.26,14.74,44.89,1029.70,2035.99,3491.99,3080.99,3503.65,600.15,605.11,11.31,0000 0000 0000 0000 000000
2016-07-16 11:27:40,-0.00,0.18,0.00,22.80,28.07,31.35,14.76,44.88,1029.71,2035.99,3492.00,3080.99,3503.94,599.95,604.12,11.36,0000 0000 0000 0000 000000
2016-07-16 11:32:41,0.00,0.18,0.00,23.16,28.07,31.34,14.69,44.90,1029.73,2035.99,3492.00,3080.99,3503.63,599.94,603.40,11.41,0000 0000 0000 0000 000000
2016-07-16 11:37:42,-0.00,0.18,0.00,23.34,28.07,31.43,14.69,44.88,1029.77,2035.99,3492.00,3080.99,3503.60,600.00,603.05,11.46,0000 0000 0000 0000 000000
2016-07-16 11:42:44,0.00,0.18,0.00,22.98,28.07,31.46,14.71,44.98,1029.74,2035.99,3492.00,3080.99,3503.40,600.03,603.78,11.51,0000 0000 0000 0000 000000
2016-07-16 11:47:45,-0.00,0.18,0.00,22.42,28.07,31.25,14.77,45.03,1029.77,2035.97,3491.98,3080.99,3503.26,599.82,604.74,11.56,0000 0000 0000 0000 000000
2016-07-16 11:52:46,-0.01,0.18,0.00,21.95,28.05,31.08,14.82,44.98,1029.71,2035.97,3491.97,3080.99,3503.48,599.86,605.71,11.61,0000 0000 0000 0000 000000
2016-07-16 11:57:48,-0.00,0.18,0.00,21.66,28.02,31.23,14.88,45.13,1029.57,2035.99,3491.99,3081.02,3503.92,600.12,606.43,11.66,0000 0000 0000 0000 000000
2016-07-16 12:02:49,-0.01,0.18,0.00,21.49,27.99,31.36,14.83,45.17,1029.45,2035.99,3492.00,3081.46,3503.99,600.06,606.76,11.71,0000 0000 0000 0000 000000
2016-07-16 12:07:50,-0.00,0.18,0.00,21.31,27.95,31.34,14.86,45.29,1029.43,2036.01,3492.04,3081.93,3504.01,599.77,606.77,11.76,0000 0000 0000 0000 000000
2016-07-16 12:12:52,-0.02,0.18,0.00,21.21,27.90,31.24,14.89,45.26,1029.50,2036.04,3492.61,3081.99,3504.49,599.90,607.08,11.81,0000 0000 0000 0000 000000
2016-07-16 12:17:53,0.03,0.18,0.00,21.12,27.85,31.14,14.91,45.22,1029.40,2036.43,3492.98,3082.09,3504.98,600.11,607.50,11.86,0000 0000 0000 0000 000000
2016-07-16 12:22:54,0.02,0.18,0.00,21.08,27.80,31.06,14.90,45.20,1029.33,2036.94,3493.02,3082.81,3505.09,599.90,607.32,11.91,0000 0000 0000 0000 000000
2016-07-16 12:27:56,-0.02,0.18,0.00,21.02,27.74,31.01,14.88,45.17,1029.33,2036.99,3493.59,3083.00,3505.81,600.04,607.63,11.96,0000 0000 0000 0000 000000
2016-07-16 12:32:57,-0.00,0.18,0.00,20.96,27.69,30.95,14.91,45.22,1029.33,2037.00,3493.98,3083.21,3505.99,600.07,607.73,12.01,0000 0000 0000 0000 000000
2016-07-16 12:37:58,-0.00,0.18,0.00,20.91,27.63,30.90,14.85,45.12,1029.33,2037.15,3493.99,3083.90,3506.29,599.73,607.61,12.06,0000 0000 0000 0000 000000
2016-07-16 12:42:59,0.05,0.18,0.00,20.88,27.57,30.80,14.87,45.15,1029.31,2037.75,3494.11,3083.99,3506.92,600.23,608.08,12.11,0000 0000 0000 0000 000000
2016-07-16 12:48:00,-0.01,0.18,0.00,20.80,27.52,30.81,14.86,45.20,1029.31,2037.96,3494.87,3084.31,3507.01,599.91,607.76,12.16,0000 0000 0000 0000 000000
2016-07-16 12:53:01,-0.02,0.18,0.00,20.76,27.46,30.78,14.90,45.14,1029.32,2038.00,3495.00,3084.94,3507.70,600.02,608.14,12.21,0000 0000 0000 0000 000000
2016-07-16 12:58:03,0.00,0.18,0.00,20.78,27.40,30.72,14.88,45.21,1029.32,2038.11,3495.39,3085.01,3507.99,599.82,607.96,12.26,0000 0000 0000 0000 000000